Tracking 19638 objects as of 19-May-2019
HD Live streaming from Space Station
objects crossing your sky now

HODOYOSHI 4

Track HODOYOSHI 4 now!
10-day predictions
HODOYOSHI 4 is classified as:


NORAD ID: 40011
Int'l Code: 2014-033B
Perigee: 613.8 km
Apogee: 652.2 km
Inclination: 97.8 °
Period: 97.2 minutes
Semi major axis: 7003 km
RCS: Unknown
Launch date: June 19, 2014
Source: Japan (JPN)
Launch site: Orenburg, Russia (OREN)
aabbcc
Your satellite tracking list
Your tracking list is empty




NASA's NSSDC Master Catalog

Two Line Element Set (TLE):
1 40011U 14033B   19139.79972769  .00000108  00000-0  20508-4 0  9994
2 40011  97.8196  33.6895 0027410 145.3269 214.9737 14.81100817265609
Source of the keplerian elements: AFSPC